| time (UTC) | temp F | wind direction | speed MPH | gust MPH | rain 1hr in | rain 24hr in | rain mn in | humidity % | barometer mb |
| 20260510210959 | 64 | 50 | 5.0 | 11.0 | 0.00 | 0.00 | 0.00 | 78 | 1014.1 |
| 20260510210459 | 64 | 50 | 5.0 | 11.0 | 0.00 | 0.00 | 0.00 | 78 | 1014.0 |
| 20260510210000 | 64 | 50 | 5.0 | 10.0 | 0.00 | 0.00 | 0.00 | 79 | 1014.1 |
| 20260510205459 | 64 | 50 | 5.0 | 8.0 | 0.00 | 0.00 | 0.00 | 80 | 1014.2 |
| 20260510204959 | 64 | 50 | 4.0 | 8.0 | 0.00 | 0.00 | 0.00 | 80 | 1014.1 |
| 20260510203959 | 63 | 50 | 4.0 | 8.0 | 0.00 | 0.00 | 0.00 | 80 | 1013.8 |
| 20260510203500 | 63 | 50 | 5.0 | 8.0 | 0.00 | 0.00 | 0.00 | 80 | 1013.8 |
| 20260510202959 | 63 | 50 | 6.0 | 9.0 | 0.00 | 0.00 | 0.00 | 80 | 1013.9 |
| 20260510202459 | 63 | 50 | 5.0 | 10.0 | 0.00 | 0.00 | 0.00 | 80 | 1013.8 |
| 20260510201500 | 63 | 50 | 4.0 | 9.0 | 0.00 | 0.00 | 0.00 | 80 | 1013.9 |
| 20260510200459 | 63 | 50 | 5.0 | 9.0 | 0.00 | 0.00 | 0.00 | 80 | 1013.9 |
| 20260510200000 | 63 | 50 | 5.0 | 9.0 | 0.00 | 0.00 | 0.00 | 80 | 1013.8 |
| 20260510194959 | 63 | 50 | 4.0 | 9.0 | 0.00 | 0.00 | 0.00 | 80 | 1013.9 |
| 20260510193959 | 63 | 50 | 5.0 | 9.0 | 0.00 | 0.00 | 0.00 | 80 | 1013.8 |
| 20260510193459 | 63 | 50 | 6.0 | 10.0 | 0.00 | 0.00 | 0.00 | 79 | 1013.9 |
| 20260510193000 | 63 | 50 | 6.0 | 11.0 | 0.00 | 0.00 | 0.00 | 80 | 1014.0 |
| 20260510191959 | 62 | 50 | 6.0 | 13.0 | 0.00 | 0.00 | 0.00 | 80 | 1014.1 |
| 20260510190459 | 63 | 50 | 5.0 | 10.0 | 0.00 | 0.00 | 0.00 | 83 | 1014.2 |
| 20260510190000 | 63 | 50 | 5.0 | 10.0 | 0.00 | 0.00 | 0.00 | 83 | 1014.2 |
| 20260510184959 | 64 | 50 | 5.0 | 9.0 | 0.00 | 0.00 | 0.00 | 81 | 1014.1 |
| 20260510184459 | 64 | 50 | 5.0 | 9.0 | 0.00 | 0.00 | 0.00 | 82 | 1014.0 |
| 20260510183959 | 64 | 50 | 6.0 | 9.0 | 0.00 | 0.00 | 0.00 | 83 | 1014.0 |
| 20260510183459 | 64 | 50 | 5.0 | 9.0 | 0.00 | 0.00 | 0.00 | 82 | 1014.0 |
| 20260510182959 | 64 | 50 | 5.0 | 9.0 | 0.00 | 0.00 | 0.00 | 83 | 1014.0 |
| 20260510181500 | 65 | 50 | 6.0 | 11.0 | 0.00 | 0.00 | 0.00 | 78 | 1014.0 |
| 20260510180959 | 65 | 50 | 6.0 | 11.0 | 0.00 | 0.00 | 0.00 | 76 | 1014.0 |
| 20260510180459 | 66 | 50 | 5.0 | 11.0 | 0.00 | 0.00 | 0.00 | 75 | 1013.9 |
| 20260510180000 | 66 | 50 | 5.0 | 10.0 | 0.00 | 0.00 | 0.00 | 76 | 1013.9 |
| 20260510175459 | 66 | 50 | 6.0 | 11.0 | 0.00 | 0.00 | 0.00 | 72 | 1013.9 |
| 20260510174959 | 66 | 50 | 5.0 | 11.0 | 0.00 | 0.00 | 0.00 | 73 | 1013.9 |
| 20260510174459 | 67 | 50 | 5.0 | 9.0 | 0.00 | 0.00 | 0.00 | 74 | 1013.9 |
| 20260510173959 | 66 | 50 | 5.0 | 11.0 | 0.00 | 0.00 | 0.00 | 72 | 1013.9 |
| 20260510173459 | 66 | 50 | 6.0 | 11.0 | 0.00 | 0.00 | 0.00 | 75 | 1014.0 |
| 20260510173000 | 66 | 50 | 6.0 | 11.0 | 0.00 | 0.00 | 0.00 | 73 | 1014.0 |
| 20260510172459 | 66 | 50 | 6.0 | 11.0 | 0.00 | 0.00 | 0.00 | 73 | 1014.0 |
| 20260510171958 | 66 | 50 | 6.0 | 9.0 | 0.00 | 0.00 | 0.00 | 73 | 1014.0 |
| 20260510170459 | 66 | 50 | 10.0 | 14.0 | 0.00 | 0.00 | 0.00 | 72 | 1014.0 |
| 20260510170000 | 66 | 50 | 9.0 | 14.0 | 0.00 | 0.00 | 0.00 | 71 | 1013.8 |
| 20260510165459 | 66 | 50 | 8.0 | 14.0 | 0.00 | 0.00 | 0.00 | 73 | 1013.9 |
| 20260510164959 | 66 | 50 | 8.0 | 13.0 | 0.00 | 0.00 | 0.00 | 73 | 1013.9 |
| 20260510163958 | 66 | 50 | 6.0 | 12.0 | 0.00 | 0.00 | 0.00 | 73 | 1013.8 |
| 20260510163459 | 66 | 50 | 8.0 | 16.0 | 0.00 | 0.00 | 0.00 | 73 | 1013.8 |
| 20260510163000 | 66 | 50 | 10.0 | 16.0 | 0.00 | 0.00 | 0.00 | 72 | 1013.7 |
| 20260510162459 | 66 | 50 | 8.0 | 14.0 | 0.00 | 0.00 | 0.00 | 71 | 1013.8 |
| 20260510161500 | 67 | 50 | 8.0 | 15.0 | 0.00 | 0.00 | 0.00 | 72 | 1013.5 |
| 20260510160959 | 67 | 50 | 7.0 | 13.0 | 0.00 | 0.00 | 0.00 | 72 | 1013.5 |
| 20260510160458 | 67 | 50 | 8.0 | 13.0 | 0.00 | 0.00 | 0.00 | 72 | 1013.5 |
| 20260510160000 | 67 | 50 | 9.0 | 16.0 | 0.00 | 0.00 | 0.00 | 72 | 1013.4 |
| 20260510155459 | 67 | 50 | 9.0 | 16.0 | 0.00 | 0.00 | 0.00 | 72 | 1013.4 |
| 20260510154959 | 67 | 50 | 9.0 | 14.0 | 0.00 | 0.00 | 0.00 | 75 | 1013.4 |
| 20260510154500 | 67 | 50 | 8.0 | 14.0 | 0.00 | 0.00 | 0.00 | 71 | 1013.4 |
| 20260510153459 | 66 | 50 | 9.0 | 14.0 | 0.00 | 0.00 | 0.00 | 74 | 1013.5 |
| 20260510153000 | 66 | 50 | 9.0 | 15.0 | 0.00 | 0.00 | 0.00 | 72 | 1013.5 |
| 20260510152459 | 67 | 50 | 8.0 | 15.0 | 0.00 | 0.00 | 0.00 | 71 | 1013.3 |
| 20260510151959 | 67 | 50 | 8.0 | 14.0 | 0.00 | 0.00 | 0.00 | 72 | 1013.2 |
| 20260510151500 | 67 | 50 | 8.0 | 14.0 | 0.00 | 0.00 | 0.00 | 71 | 1013.3 |
| 20260510150459 | 66 | 50 | 7.0 | 12.0 | 0.00 | 0.00 | 0.00 | 74 | 1013.1 |
| 20260510150000 | 66 | 50 | 6.0 | 11.0 | 0.00 | 0.00 | 0.00 | 73 | 1013.1 |
| 20260510145459 | 66 | 50 | 7.0 | 13.0 | 0.00 | 0.00 | 0.00 | 75 | 1013.2 |
| 20260510144959 | 66 | 50 | 7.0 | 13.0 | 0.00 | 0.00 | 0.00 | 75 | 1013.2 |
| 20260510144500 | 66 | 50 | 7.0 | 12.0 | 0.00 | 0.00 | 0.00 | 75 | 1013.2 |
| 20260510143959 | 65 | 50 | 7.0 | 12.0 | 0.00 | 0.00 | 0.00 | 77 | 1013.2 |
| 20260510143459 | 65 | 50 | 8.0 | 14.0 | 0.00 | 0.00 | 0.00 | 76 | 1013.0 |
| 20260510143000 | 64 | 50 | 7.0 | 14.0 | 0.00 | 0.00 | 0.00 | 77 | 1013.0 |
| 20260510142459 | 64 | 50 | 5.0 | 11.0 | 0.00 | 0.00 | 0.00 | 79 | 1013.2 |
| 20260510141959 | 64 | 50 | 5.0 | 11.0 | 0.00 | 0.00 | 0.00 | 80 | 1013.3 |
| 20260510141501 | 63 | 290 | 4.0 | 11.0 | 0.00 | 0.00 | 0.00 | 80 | 1013.2 |
| 20260510140959 | 63 | 248 | 4.0 | 7.0 | 0.00 | 0.00 | 0.00 | 83 | 1013.2 |
| 20260510140459 | 63 | 261 | 3.0 | 8.0 | 0.00 | 0.00 | 0.00 | 84 | 1013.1 |
| 20260510140000 | 63 | 239 | 3.0 | 8.0 | 0.00 | 0.00 | 0.00 | 85 | 1013.0 |
| 20260510135459 | 62 | 248 | 3.0 | 8.0 | 0.00 | 0.00 | 0.00 | 85 | 1013.0 |
| 20260510134959 | 62 | 230 | 3.0 | 9.0 | 0.00 | 0.00 | 0.00 | 86 | 1013.0 |
| 20260510134500 | 61 | 50 | 3.0 | 9.0 | 0.00 | 0.00 | 0.00 | 86 | 1013.1 |
| 20260510133959 | 61 | 50 | 3.0 | 8.0 | 0.00 | 0.00 | 0.00 | 89 | 1013.1 |
| 20260510133459 | 60 | 50 | 3.0 | 8.0 | 0.00 | 0.00 | 0.00 | 87 | 1013.0 |
| 20260510132959 | 60 | 50 | 4.0 | 8.0 | 0.00 | 0.00 | 0.00 | 89 | 1013.0 |
| 20260510131959 | 59 | 50 | 4.0 | 9.0 | 0.00 | 0.00 | 0.00 | 90 | 1012.9 |
| 20260510131459 | 58 | 50 | 4.0 | 8.0 | 0.00 | 0.00 | 0.00 | 91 | 1012.9 |
| 20260510130959 | 58 | 50 | 5.0 | 9.0 | 0.00 | 0.00 | 0.00 | 93 | 1013.0 |
| 20260510130459 | 58 | 50 | 5.0 | 9.0 | 0.00 | 0.00 | 0.00 | 95 | 1013.1 |
| 20260510130000 | 57 | 50 | 4.0 | 9.0 | 0.00 | 0.00 | 0.00 | 97 | 1013.1 |
| 20260510125459 | 57 | 50 | 3.0 | 6.0 | 0.00 | 0.00 | 0.00 | 98 | 1013.1 |
| 20260510124959 | 56 | 50 | 3.0 | 6.0 | 0.00 | 0.00 | 0.00 | 98 | 1013.1 |
| 20260510124459 | 56 | 50 | 4.0 | 6.0 | 0.00 | 0.00 | 0.00 | 98 | 1013.1 |
| 20260510123959 | 55 | 50 | 4.0 | 6.0 | 0.00 | 0.00 | 0.00 | 98 | 1013.0 |
| 20260510123459 | 55 | 50 | 3.0 | 6.0 | 0.00 | 0.00 | 0.00 | 98 | 1013.1 |
| 20260510123000 | 55 | 50 | 1.0 | 6.0 | 0.00 | 0.00 | 0.00 | 98 | 1013.0 |
| 20260510122459 | 54 | 145 | 1.0 | 3.0 | 0.00 | 0.00 | 0.00 | 98 | 1013.1 |
| 20260510121959 | 54 | 50 | 2.0 | 3.0 | 0.00 | 0.00 | 0.00 | 98 | 1013.0 |
| 20260510121500 | 54 | 50 | 2.0 | 3.0 | 0.00 | 0.00 | 0.00 | 98 | 1013.0 |
| 20260510120958 | 53 | 50 | 1.0 | 3.0 | 0.00 | 0.00 | 0.00 | 98 | 1013.0 |
| 20260510120000 | 52 | 205 | 1.0 | 3.0 | 0.00 | 0.00 | 0.00 | 98 | 1012.9 |
| 20260510115459 | 52 | 205 | 1.0 | 3.0 | 0.00 | 0.00 | 0.00 | 98 | 1012.9 |
| 20260510114959 | 52 | 316 | 0.0 | 0.0 | 0.00 | 0.00 | 0.00 | 98 | 1012.6 |
| 20260510114459 | 51 | 316 | 0.0 | 0.0 | 0.00 | 0.00 | 0.00 | 98 | 1012.6 |
| 20260510113459 | 51 | 316 | 1.0 | 4.0 | 0.00 | 0.00 | 0.00 | 98 | 1012.5 |
| 20260510113000 | 51 | 317 | 0.0 | 4.0 | 0.00 | 0.00 | 0.00 | 98 | 1012.3 |
| 20260510112459 | 51 | 119 | 0.0 | 0.0 | 0.00 | 0.00 | 0.00 | 97 | 1012.1 |
| 20260510111959 | 51 | 119 | 1.0 | 3.0 | 0.00 | 0.00 | 0.00 | 98 | 1012.1 |
| 20260510111500 | 51 | 119 | 1.0 | 3.0 | 0.00 | 0.00 | 0.00 | 98 | 1012.1 |
| 20260510110959 | 51 | 120 | 0.0 | 3.0 | 0.00 | 0.00 | 0.00 | 98 | 1011.9 |
| 20260510110459 | 51 | 145 | 0.0 | 2.0 | 0.00 | 0.00 | 0.00 | 98 | 1012.0 |
| 20260510110000 | 0 | 0.0 | 0.0 | 0.00 | 0.00 | 0.00 | 1011.9 | ||
| 20260510105459 | 0 | 0.0 | 0.0 | 0.00 | 0.00 | 0.00 | 1011.9 | ||
| 20260510103958 | 0 | 0.0 | 0.0 | 0.00 | 0.00 | 0.00 | 1011.7 | ||
| 20260510103459 | 0 | 0.0 | 0.0 | 0.00 | 0.00 | 0.00 | 1011.6 | ||
| 20260510103000 | 0 | 0.0 | 0.0 | 0.00 | 0.00 | 0.00 | 1011.3 | ||
| 20260510102459 | 0 | 0.0 | 0.0 | 0.00 | 0.00 | 0.00 | 1011.5 | ||
| 20260510101958 | 0 | 0.0 | 0.0 | 0.00 | 0.00 | 0.00 | 1011.6 | ||
| 20260510101500 | 0 | 0.0 | 0.0 | 0.00 | 0.00 | 0.00 | 1011.7 | ||
| 20260510100959 | 0 | 0.0 | 0.0 | 0.00 | 0.00 | 0.00 | 1011.7 | ||
| 20260510100459 | 0 | 0.0 | 0.0 | 0.00 | 0.00 | 0.00 | 1011.7 | ||
| 20260510094959 | 0 | 0.0 | 0.0 | 0.00 | 0.00 | 0.00 | 1011.5 | ||
| 20260510094459 | 0 | 0.0 | 0.0 | 0.00 | 0.00 | 0.00 | 1011.4 | ||
| 20260510093959 | 0 | 0.0 | 0.0 | 0.00 | 0.00 | 0.00 | 1011.5 | ||
| 20260510093458 | 0 | 0.0 | 0.0 | 0.00 | 0.00 | 0.00 | 1011.4 | ||
| 20260510092959 | 0 | 0.0 | 0.0 | 0.00 | 0.00 | 0.00 | 1011.5 | ||
| 20260510092459 | 0 | 0.0 | 0.0 | 0.00 | 0.00 | 0.00 | 1011.3 | ||
| 20260510091959 | 0 | 0.0 | 0.0 | 0.00 | 0.00 | 0.00 | 1011.4 | ||
| 20260510091459 | 0 | 0.0 | 0.0 | 0.00 | 0.00 | 0.00 | 1011.4 | ||
| 20260510090959 | 0 | 0.0 | 0.0 | 0.00 | 0.00 | 0.00 | 1011.3 | ||
| 20260510090459 | 0 | 0.0 | 0.0 | 0.00 | 0.00 | 0.00 | 1011.4 | ||
| 20260510090000 | 0 | 0.0 | 0.0 | 0.00 | 0.00 | 0.00 | 1011.3 | ||
| 20260510085501 | 0 | 0.0 | 0.0 | 0.00 | 0.00 | 0.00 | 1011.2 | ||
| 20260510084959 | 0 | 0.0 | 0.0 | 0.00 | 0.00 | 0.00 | 1011.1 | ||
| 20260510084459 | 0 | 0.0 | 0.0 | 0.00 | 0.00 | 0.00 | 1011.2 | ||
| 20260510083959 | 0 | 0.0 | 0.0 | 0.00 | 0.00 | 0.00 | 1011.1 | ||
| 20260510082959 | 0 | 0.0 | 0.0 | 0.00 | 0.00 | 0.00 | 1011.2 | ||
| 20260510082458 | 0 | 0.0 | 0.0 | 0.00 | 0.00 | 0.00 | 1011.2 | ||
| 20260510081959 | 0 | 0.0 | 0.0 | 0.00 | 0.00 | 0.00 | 1011.2 | ||
| 20260510080959 | 0 | 0.0 | 0.0 | 0.00 | 0.00 | 0.00 | 1011.0 | ||
| 20260510080458 | 0 | 0.0 | 0.0 | 0.00 | 0.00 | 0.00 | 1011.1 | ||
| 20260510080000 | 0 | 0.0 | 0.0 | 0.00 | 0.00 | 0.00 | 1011.1 | ||
| 20260510075458 | 0 | 0.0 | 0.0 | 0.00 | 0.00 | 0.00 | 1011.2 | ||
| 20260510073959 | 0 | 0.0 | 0.0 | 0.00 | 0.00 | 0.00 | 1011.3 | ||
| 20260510072959 | 0 | 0.0 | 0.0 | 0.00 | 0.00 | 0.00 | 1011.5 | ||
| 20260510072458 | 0 | 0.0 | 0.0 | 0.00 | 0.00 | 0.00 | 1011.6 | ||
| 20260510071958 | 0 | 0.0 | 0.0 | 0.00 | 0.00 | 0.00 | 1011.6 | ||
| 20260510070959 | 0 | 0.0 | 0.0 | 0.00 | 0.00 | 0.00 | 1011.7 | ||
| 20260510070458 | 0 | 0.0 | 0.0 | 0.00 | 0.00 | 0.00 | 1011.5 | ||
| 20260510070000 | 0 | 0.0 | 0.0 | 0.00 | 0.00 | 0.00 | 1011.6 | ||
| 20260510065459 | 0 | 0.0 | 0.0 | 0.00 | 0.00 | 0.00 | 1011.9 | ||
| 20260510064959 | 0 | 0.0 | 0.0 | 0.00 | 0.00 | 0.00 | 1011.5 | ||
| 20260510064459 | 0 | 0.0 | 0.0 | 0.00 | 0.00 | 0.00 | 1011.6 | ||
| 20260510063958 | 0 | 0.0 | 0.0 | 0.00 | 0.00 | 0.00 | 1010.9 | ||
| 20260510063459 | 0 | 0.0 | 0.0 | 0.00 | 0.00 | 0.00 | 1010.9 | ||
| 20260510063000 | 0 | 0.0 | 0.0 | 0.00 | 0.00 | 0.00 | 1010.9 | ||
| 20260510062458 | 0 | 0.0 | 0.0 | 0.00 | 0.00 | 0.00 | 1011.0 | ||
| 20260510061959 | 0 | 0.0 | 0.0 | 0.00 | 0.00 | 0.00 | 1011.2 | ||
| 20260510061500 | 0 | 0.0 | 0.0 | 0.00 | 0.00 | 0.00 | 1011.3 | ||
| 20260510060958 | 0 | 0.0 | 0.0 | 0.00 | 0.00 | 0.00 | 1011.3 | ||
| 20260510060458 | 0 | 0.0 | 0.0 | 0.00 | 0.00 | 0.00 | 1011.3 | ||
| 20260510060000 | 0 | 0.0 | 0.0 | 0.00 | 0.00 | 0.00 | 1011.3 | ||
| 20260510055458 | 0 | 0.0 | 0.0 | 0.00 | 0.00 | 0.00 | 1011.4 | ||
| 20260510054459 | 0 | 0.0 | 0.0 | 0.00 | 0.00 | 0.00 | 1011.4 | ||
| 20260510052959 | 0 | 0.0 | 0.0 | 0.00 | 0.00 | 0.00 | 1011.4 | ||
| 20260510052458 | 0 | 0.0 | 0.0 | 0.00 | 0.00 | 0.00 | 1011.2 | ||
| 20260510051959 | 0 | 0.0 | 0.0 | 0.00 | 0.00 | 0.00 | 1011.2 | ||
| 20260510051459 | 0 | 0.0 | 0.0 | 0.00 | 0.00 | 0.00 | 1011.0 | ||
| 20260510050959 | 0 | 0.0 | 0.0 | 0.00 | 0.00 | 0.00 | 1011.0 | ||
| 20260510050459 | 0 | 0.0 | 0.0 | 0.00 | 0.00 | 0.00 | 1010.9 | ||
| 20260510050000 | 0 | 0.0 | 0.0 | 0.00 | 0.00 | 0.00 | 1010.9 | ||
| 20260510045458 | 0 | 0.0 | 0.0 | 0.00 | 0.00 | 0.00 | 1010.9 | ||
| 20260510044959 | 0 | 0.0 | 0.0 | 0.00 | 0.00 | 0.00 | 1011.0 | ||
| 20260510044459 | 0 | 0.0 | 0.0 | 0.00 | 0.00 | 0.00 | 1011.0 | ||
| 20260510042959 | 0 | 0.0 | 0.0 | 0.00 | 0.00 | 0.00 | 1011.0 | ||
| 20260510042459 | 0 | 0.0 | 0.0 | 0.00 | 0.00 | 0.00 | 1011.1 | ||
| 20260510040958 | 0 | 0.0 | 0.0 | 0.00 | 0.00 | 0.00 | 1011.1 | ||
| 20260510040458 | 0 | 0.0 | 0.0 | 0.00 | 0.00 | 0.00 | 1011.1 | ||
| 20260510035458 | 0 | 0.0 | 0.0 | 0.00 | 0.00 | 0.00 | 1011.1 | ||
| 20260510034958 | 0 | 0.0 | 0.0 | 0.00 | 0.00 | 0.00 | 1011.0 | ||
| 20260510034459 | 0 | 0.0 | 0.0 | 0.00 | 0.00 | 0.00 | 1010.9 | ||
| 20260510033458 | 0 | 0.0 | 0.0 | 0.00 | 0.00 | 0.00 | 1010.9 | ||
| 20260510032459 | 0 | 0.0 | 0.0 | 0.00 | 0.00 | 0.00 | 1010.9 | ||
| 20260510031958 | 0 | 0.0 | 0.0 | 0.00 | 0.00 | 0.00 | 1010.9 | ||
| 20260510031459 | 0 | 0.0 | 0.0 | 0.00 | 0.00 | 0.00 | 1010.8 | ||
| 20260510030958 | 0 | 0.0 | 0.0 | 0.00 | 0.00 | 0.00 | 1010.7 | ||
| 20260510030458 | 0 | 0.0 | 0.0 | 0.00 | 0.00 | 0.00 | 1010.8 | ||
| 20260510025959 | 0 | 0.0 | 0.0 | 0.00 | 0.00 | 0.00 | 1010.9 | ||
| 20260510024958 | 0 | 0.0 | 0.0 | 0.00 | 0.00 | 0.00 | 1010.9 | ||
| 20260510024459 | 0 | 0.0 | 0.0 | 0.00 | 0.00 | 0.00 | 1011.0 | ||
| 20260510023959 | 0 | 0.0 | 0.0 | 0.00 | 0.00 | 0.00 | 1010.9 | ||
| 20260510023459 | 0 | 0.0 | 0.0 | 0.00 | 0.00 | 0.00 | 1010.7 | ||
| 20260510022459 | 0 | 0.0 | 0.0 | 0.00 | 0.00 | 0.00 | 1010.8 | ||
| 20260510021459 | 0 | 0.0 | 0.0 | 0.00 | 0.00 | 0.00 | 1010.7 | ||
| 20260510020958 | 0 | 0.0 | 0.0 | 0.00 | 0.00 | 0.00 | 1010.7 | ||
| 20260510020458 | 0 | 0.0 | 0.0 | 0.00 | 0.00 | 0.00 | 1010.7 | ||
| 20260510015959 | 0 | 0.0 | 0.0 | 0.00 | 0.00 | 0.00 | 1010.6 | ||
| 20260510015459 | 0 | 0.0 | 0.0 | 0.00 | 0.00 | 0.00 | 1010.5 | ||
| 20260510014958 | 0 | 0.0 | 0.0 | 0.00 | 0.00 | 0.00 | 1010.4 | ||
| 20260510014459 | 0 | 0.0 | 0.0 | 0.00 | 0.00 | 0.00 | 1010.4 | ||
| 20260510013958 | 0 | 0.0 | 0.0 | 0.00 | 0.00 | 0.00 | 1010.4 | ||
| 20260510013458 | 0 | 0.0 | 0.0 | 0.00 | 0.00 | 0.00 | 1010.4 | ||
| 20260510012959 | 0 | 0.0 | 0.0 | 0.00 | 0.00 | 0.00 | 1010.5 | ||
| 20260510012459 | 0 | 0.0 | 0.0 | 0.00 | 0.00 | 0.00 | 1010.5 | ||
| 20260510011958 | 0 | 0.0 | 0.0 | 0.00 | 0.00 | 0.00 | 1010.4 | ||
| 20260510011459 | 0 | 0.0 | 0.0 | 0.00 | 0.00 | 0.00 | 1010.4 | ||
| 20260510010958 | 0 | 0.0 | 0.0 | 0.00 | 0.00 | 0.00 | 1010.3 | ||
| 20260510010458 | 0 | 0.0 | 0.0 | 0.00 | 0.00 | 0.00 | 1010.3 | ||
| 20260510005959 | 0 | 0.0 | 0.0 | 0.00 | 0.00 | 0.00 | 1010.3 | ||
| 20260510005458 | 0 | 0.0 | 0.0 | 0.00 | 0.00 | 0.00 | 1010.2 | ||
| 20260510004958 | 0 | 0.0 | 0.0 | 0.00 | 0.00 | 0.00 | 1010.1 | ||
| 20260510004459 | 0 | 0.0 | 0.0 | 0.00 | 0.00 | 0.00 | 1010.0 | ||
| 20260510003959 | 0 | 0.0 | 0.0 | 0.00 | 0.00 | 0.00 | 1010.0 | ||
| 20260510003458 | 0 | 0.0 | 0.0 | 0.00 | 0.00 | 0.00 | 1010.0 | ||
| 20260510002959 | 0 | 0.0 | 0.0 | 0.00 | 0.00 | 0.00 | 1009.9 | ||
| 20260510001958 | 0 | 0.0 | 0.0 | 0.00 | 0.00 | 0.00 | 1009.8 | ||
| 20260510001459 | 0 | 0.0 | 0.0 | 0.00 | 0.00 | 0.00 | 1009.7 | ||
| 20260510000958 | 0 | 0.0 | 0.0 | 0.00 | 0.00 | 0.00 | 1009.7 | ||
| 20260509235959 | 0 | 0.0 | 0.0 | 0.00 | 0.00 | 0.00 | 1009.5 | ||
| 20260509235458 | 0 | 0.0 | 0.0 | 0.00 | 0.00 | 0.00 | 1009.5 | ||
| 20260509234958 | 0 | 0.0 | 0.0 | 0.00 | 0.00 | 0.00 | 1009.4 | ||
| 20260509234459 | 0 | 0.0 | 0.0 | 0.00 | 0.00 | 0.00 | 1009.4 | ||
| 20260509233958 | 0 | 0.0 | 0.0 | 0.00 | 0.00 | 0.00 | 1009.5 | ||
| 20260509233458 | 0 | 0.0 | 0.0 | 0.00 | 0.00 | 0.00 | 1009.5 | ||
| 20260509232959 | 0 | 0.0 | 0.0 | 0.00 | 0.00 | 0.00 | 1009.5 | ||
| 20260509232458 | 0 | 0.0 | 0.0 | 0.00 | 0.00 | 0.00 | 1009.5 | ||
| 20260509231459 | 0 | 0.0 | 0.0 | 0.00 | 0.00 | 0.00 | 1009.4 | ||
| 20260509230958 | 0 | 0.0 | 0.0 | 0.00 | 0.00 | 0.00 | 1009.6 | ||
| 20260509230458 | 0 | 0.0 | 0.0 | 0.00 | 0.00 | 0.00 | 1009.5 | ||
| 20260509225959 | 0 | 0.0 | 0.0 | 0.00 | 0.00 | 0.00 | 1009.5 | ||
| 20260509224958 | 0 | 0.0 | 0.0 | 0.00 | 0.00 | 0.00 | 1009.5 | ||
| 20260509224459 | 0 | 0.0 | 0.0 | 0.00 | 0.00 | 0.00 | 1009.5 | ||
| 20260509223958 | 0 | 0.0 | 0.0 | 0.00 | 0.00 | 0.00 | 1009.4 | ||
| 20260509223458 | 0 | 0.0 | 0.0 | 0.00 | 0.00 | 0.00 | 1009.4 | ||
| 20260509222959 | 0 | 0.0 | 0.0 | 0.00 | 0.00 | 0.00 | 1009.5 | ||
| 20260509222458 | 0 | 0.0 | 0.0 | 0.00 | 0.00 | 0.00 | 1009.5 | ||
| 20260509221958 | 0 | 0.0 | 0.0 | 0.00 | 0.00 | 0.00 | 1009.5 | ||
| 20260509221500 | 0 | 0.0 | 0.0 | 0.00 | 0.00 | 0.00 | 1009.4 | ||
| 20260509220958 | 0 | 0.0 | 0.0 | 0.00 | 0.00 | 0.00 | 1009.4 | ||
| 20260509215959 | 0 | 0.0 | 0.0 | 0.00 | 0.00 | 0.00 | 1009.5 | ||
| 20260509214958 | 0 | 0.0 | 0.0 | 0.00 | 0.00 | 0.00 | 1009.7 | ||
| 20260509214459 | 0 | 0.0 | 0.0 | 0.00 | 0.00 | 0.00 | 1009.8 | ||
| 20260509213959 | 0 | 0.0 | 0.0 | 0.00 | 0.00 | 0.00 | 1009.8 | ||
| 20260509213458 | 0 | 0.0 | 0.0 | 0.00 | 0.00 | 0.00 | 1009.8 | ||
| 20260509213000 | 0 | 0.0 | 0.0 | 0.00 | 0.00 | 0.00 | 1009.7 | ||
| 20260509211958 | 0 | 0.0 | 0.0 | 0.00 | 0.00 | 0.00 | 1009.6 |